Location: Votelez
(50.0000°N, 15.0000°E)
Time: 10:51:22
(UTC+01:00)

ISS - Pass Details

Date: 17 February 2026
Orbit: 416 x 426 km, 51.6° (Epoch: 10 March)

Event Time Altitude Azimuth Distance (km) Brightness Sun altitude
Exits shadow 05:39:03 22° 226° (SW) 967 -2.3 -14.8°
Maximum altitude 05:40:59 55° 155° (SSE) 505 -3.3 -14.4°
Drops below altitude 10° 05:44:16 10° 77° (ENE) 1,494 0.3 -13.9°
Sets 05:46:23 0° 73° (ENE) 2,359 1.5 -13.6°
